GLET03 YSNW-YWLM

Flight info

Callsign GLET03
Flight time 1h 23m
Altitude 7000
Route NWA DCT JIBN DCT LRF DCT WLM
Aircraft H60/M-SDFHITUY/C

Departure

Time 2026-05-01 09:59
Airport Naval Air Station Nowra - HMAS Albatross (YSNW)

Arrival

Time 2026-05-01 11:23
Airport Newcastle Airport (YWLM)
Time Latitude Longitude Altitude Speed Heading
2026-05-01 09:55 -34.94375 150.53597 360 ft 0 kts 225°
2026-05-01 09:59 -34.94343 150.53578 398 ft 27 kts 19°
2026-05-01 09:59 -34.94050 150.53736 708 ft 64 kts 21°
2026-05-01 09:59 -34.93549 150.54082 1021 ft 104 kts 31°
2026-05-01 10:00 -34.92929 150.54527 1313 ft 95 kts 30°
2026-05-01 10:00 -34.92337 150.54924 1424 ft 98 kts 30°
2026-05-01 10:00 -34.91735 150.55318 1714 ft 98 kts 30°
2026-05-01 10:00 -34.91145 150.55708 1514 ft 96 kts 30°
2026-05-01 10:01 -34.90542 150.56105 1498 ft 99 kts 25°
2026-05-01 10:01 -34.89931 150.56474 1492 ft 98 kts 21°
2026-05-01 10:01 -34.89285 150.56750 1476 ft 106 kts 15°
2026-05-01 10:01 -34.88558 150.56953 1499 ft 109 kts 15°
2026-05-01 10:02 -34.87807 150.57153 1507 ft 111 kts 14°
2026-05-01 10:02 -34.87039 150.57327 1507 ft 114 kts
2026-05-01 10:02 -34.86244 150.57378 1513 ft 116 kts 359°
2026-05-01 10:02 -34.85433 150.57358 1519 ft 118 kts 360°
2026-05-01 10:03 -34.84604 150.57261 1519 ft 121 kts 349°
2026-05-01 10:03 -34.83779 150.57052 1527 ft 122 kts 346°
2026-05-01 10:03 -34.82970 150.56767 1816 ft 118 kts 350°
2026-05-01 10:03 -34.82183 150.56545 1970 ft 119 kts 350°
2026-05-01 10:04 -34.81368 150.56322 1991 ft 119 kts 351°
2026-05-01 10:04 -34.80560 150.56147 1998 ft 119 kts 353°
2026-05-01 10:04 -34.79745 150.55968 1999 ft 119 kts 358°
2026-05-01 10:04 -34.78922 150.55871 1999 ft 119 kts 358°
2026-05-01 10:05 -34.78092 150.55766 1995 ft 121 kts 352°
2026-05-01 10:05 -34.77264 150.55587 1998 ft 120 kts 352°
2026-05-01 10:05 -34.76439 150.55388 1998 ft 121 kts 351°
2026-05-01 10:05 -34.75612 150.55171 1998 ft 121 kts 351°
2026-05-01 10:06 -34.74787 150.54955 1995 ft 121 kts 351°
2026-05-01 10:06 -34.73961 150.54741 1994 ft 121 kts 351°
2026-05-01 10:06 -34.73134 150.54540 1995 ft 121 kts 351°
2026-05-01 10:06 -34.72312 150.54311 1996 ft 121 kts 347°
2026-05-01 10:07 -34.71508 150.54024 1997 ft 121 kts 347°
2026-05-01 10:07 -34.70702 150.53733 1997 ft 121 kts 347°
2026-05-01 10:07 -34.69883 150.53443 1984 ft 126 kts 347°
2026-05-01 10:07 -34.69039 150.53131 1984 ft 128 kts 347°
2026-05-01 10:08 -34.67330 150.52513 2001 ft 130 kts 347°
2026-05-01 10:08 -34.66469 150.52191 2204 ft 127 kts 347°
2026-05-01 10:08 -34.65657 150.51810 2479 ft 122 kts 340°
2026-05-01 10:09 -34.64876 150.51363 2653 ft 125 kts 342°
2026-05-01 10:09 -34.64061 150.50971 2706 ft 130 kts 343°
2026-05-01 10:09 -34.63197 150.50594 2748 ft 131 kts 348°
2026-05-01 10:09 -34.62318 150.50359 2727 ft 129 kts 353°
2026-05-01 10:10 -34.61436 150.50223 2729 ft 128 kts 358°
2026-05-01 10:10 -34.60552 150.50122 2730 ft 127 kts 358°
2026-05-01 10:10 -34.58824 150.49911 2736 ft 123 kts 358°
2026-05-01 10:11 -34.57959 150.49788 2746 ft 127 kts 358°
2026-05-01 10:11 -34.57078 150.49688 2739 ft 127 kts 358°
2026-05-01 10:11 -34.56204 150.49589 2736 ft 126 kts 359°
2026-05-01 10:11 -34.55328 150.49476 2740 ft 128 kts 359°
2026-05-01 10:12 -34.54442 150.49360 2962 ft 125 kts 359°
2026-05-01 10:12 -34.53593 150.49250 3115 ft 123 kts 359°
2026-05-01 10:12 -34.51871 150.49054 3092 ft 123 kts 359°
2026-05-01 10:13 -34.51013 150.48952 3098 ft 123 kts 360°
2026-05-01 10:13 -34.50153 150.48858 3098 ft 126 kts 360°
2026-05-01 10:13 -34.49239 150.48769 3018 ft 139 kts
2026-05-01 10:14 -34.47412 150.48925 2760 ft 119 kts
2026-05-01 10:14 -34.46560 150.49052 2383 ft 126 kts 10°
2026-05-01 10:14 -34.45696 150.49189 2273 ft 124 kts 10°
2026-05-01 10:14 -34.45037 150.49305 2351 ft 36 kts 216°
2026-05-01 10:15 -34.45044 150.49269 2005 ft 39 kts 158°
2026-05-01 10:15 -34.45130 150.49300 1857 ft 0 kts 161°
2026-05-01 10:15 -34.45135 150.49305 1862 ft 10 kts 97°
2026-05-01 10:15 -34.45018 150.49393 1981 ft 46 kts
2026-05-01 10:16 -34.44573 150.49187 2320 ft 89 kts 311°
2026-05-01 10:16 -34.44273 150.48395 2436 ft 116 kts 306°
2026-05-01 10:16 -34.43407 150.46817 2596 ft 121 kts 308°
2026-05-01 10:17 -34.43126 150.45767 2771 ft 143 kts 265°
2026-05-01 10:17 -34.42551 150.43504 2510 ft 129 kts 344°
2026-05-01 10:17 -34.41734 150.43143 2575 ft 133 kts 348°
2026-05-01 10:18 -34.39691 150.42579 2106 ft 157 kts 346°
2026-05-01 10:18 -34.38719 150.42130 2204 ft 144 kts 342°
2026-05-01 10:18 -34.37759 150.41722 2135 ft 148 kts 342°
2026-05-01 10:19 -34.36810 150.41177 1984 ft 151 kts 329°
2026-05-01 10:19 -34.35931 150.40549 1948 ft 149 kts 333°
2026-05-01 10:19 -34.35007 150.40032 1842 ft 136 kts 341°
2026-05-01 10:20 -34.33132 150.39374 1514 ft 144 kts 348°
2026-05-01 10:20 -34.32170 150.38996 1252 ft 149 kts 330°
2026-05-01 10:20 -34.31287 150.38400 1350 ft 141 kts 333°
2026-05-01 10:20 -34.30439 150.37817 1560 ft 142 kts 330°
2026-05-01 10:21 -34.29713 150.36993 1611 ft 147 kts 304°
2026-05-01 10:21 -34.28422 150.35039 1596 ft 145 kts 334°
2026-05-01 10:21 -34.27484 150.34775 1614 ft 142 kts 359°
2026-05-01 10:22 -34.25449 150.34971 1554 ft 150 kts
2026-05-01 10:22 -34.23370 150.35257 1518 ft 148 kts
2026-05-01 10:23 -34.22336 150.35208 1309 ft 151 kts 358°
2026-05-01 10:23 -34.20456 150.35706 1098 ft 130 kts 35°
2026-05-01 10:23 -34.19748 150.36393 1233 ft 135 kts 43°
2026-05-01 10:24 -34.18175 150.37758 1474 ft 143 kts 26°
2026-05-01 10:24 -34.16319 150.38822 834 ft 150 kts 24°
2026-05-01 10:25 -34.14793 150.40197 1009 ft 138 kts 63°
2026-05-01 10:25 -34.13940 150.42572 1429 ft 156 kts 72°
2026-05-01 10:26 -34.13568 150.43790 1872 ft 158 kts 61°
2026-05-01 10:26 -34.12734 150.44629 1995 ft 169 kts
2026-05-01 10:26 -34.10432 150.43622 1973 ft 172 kts 339°
2026-05-01 10:27 -34.08325 150.42625 448 ft 161 kts 338°
2026-05-01 10:27 -34.06335 150.41718 534 ft 145 kts 358°
2026-05-01 10:28 -34.05366 150.41786 529 ft 135 kts
2026-05-01 10:28 -34.03581 150.42090 514 ft 128 kts 12°
2026-05-01 10:28 -34.02666 150.42311 715 ft 150 kts 14°
2026-05-01 10:29 -34.00513 150.42745 838 ft 164 kts
2026-05-01 10:29 -33.99332 150.42833 810 ft 173 kts
2026-05-01 10:30 -33.96900 150.42848 781 ft 178 kts 342°
2026-05-01 10:30 -33.94733 150.42578 1312 ft 143 kts 39°
2026-05-01 10:31 -33.93171 150.43446 1582 ft 146 kts 319°
2026-05-01 10:31 -33.92380 150.41329 2340 ft 139 kts 297°
2026-05-01 10:32 -33.90862 150.39472 1585 ft 177 kts 321°
2026-05-01 10:32 -33.89918 150.38487 1304 ft 176 kts 320°
2026-05-01 10:32 -33.88152 150.36637 1983 ft 181 kts 322°
2026-05-01 10:33 -33.86145 150.34861 2078 ft 156 kts 327°
2026-05-01 10:33 -33.84122 150.34076 2685 ft 167 kts
2026-05-01 10:34 -33.82907 150.34084 2688 ft 180 kts
2026-05-01 10:34 -33.81645 150.34067 2686 ft 179 kts 357°
2026-05-01 10:34 -33.80420 150.34005 2902 ft 175 kts 356°
2026-05-01 10:35 -33.77975 150.33610 3007 ft 186 kts 342°
2026-05-01 10:35 -33.76758 150.32988 2880 ft 187 kts 334°
2026-05-01 10:35 -33.75629 150.32350 2870 ft 176 kts 334°
2026-05-01 10:35 -33.74558 150.31740 3175 ft 163 kts 333°
2026-05-01 10:36 -33.72679 150.30632 3606 ft 137 kts 332°
2026-05-01 10:36 -33.71893 150.29990 3990 ft 139 kts 334°
2026-05-01 10:36 -33.70972 150.29556 4094 ft 149 kts 342°
2026-05-01 10:37 -33.69961 150.29192 4130 ft 153 kts 343°
2026-05-01 10:37 -33.67878 150.28549 4238 ft 154 kts 348°
2026-05-01 10:37 -33.66818 150.28274 4221 ft 157 kts 346°
2026-05-01 10:38 -33.65716 150.27987 4058 ft 166 kts 347°
2026-05-01 10:38 -33.64572 150.27680 3820 ft 174 kts 348°
2026-05-01 10:38 -33.63363 150.27400 3752 ft 179 kts 351°
2026-05-01 10:38 -33.62134 150.27310 3859 ft 173 kts
2026-05-01 10:39 -33.60989 150.27555 4084 ft 166 kts 16°
2026-05-01 10:39 -33.59869 150.27909 4012 ft 168 kts 19°
2026-05-01 10:39 -33.58756 150.28396 3795 ft 172 kts 24°
2026-05-01 10:39 -33.57661 150.28998 3608 ft 173 kts 28°
2026-05-01 10:40 -33.56645 150.29715 3489 ft 171 kts 36°
2026-05-01 10:40 -33.55684 150.30552 3414 ft 171 kts 39°
2026-05-01 10:40 -33.54767 150.31410 3643 ft 162 kts 41°
2026-05-01 10:40 -33.53911 150.32265 3623 ft 162 kts 40°
2026-05-01 10:41 -33.53327 150.32850 3387 ft 167 kts 41°
2026-05-01 10:41 -33.52418 150.33725 3165 ft 167 kts 40°
2026-05-01 10:41 -33.50601 150.35985 3509 ft 159 kts 56°
2026-05-01 10:42 -33.50000 150.37079 3795 ft 155 kts 59°
2026-05-01 10:42 -33.49576 150.37796 3727 ft 165 kts 50°
2026-05-01 10:42 -33.48700 150.38802 3193 ft 182 kts 34°
2026-05-01 10:42 -33.47685 150.39725 2799 ft 182 kts 35°
2026-05-01 10:43 -33.46739 150.40568 3032 ft 163 kts 40°
2026-05-01 10:43 -33.45889 150.41445 3151 ft 161 kts 44°
2026-05-01 10:43 -33.45067 150.42369 3115 ft 163 kts 46°
2026-05-01 10:43 -33.44250 150.43359 2939 ft 174 kts 49°
2026-05-01 10:44 -33.43411 150.44439 2661 ft 183 kts 49°
2026-05-01 10:44 -33.42565 150.45574 2419 ft 175 kts 50°
2026-05-01 10:44 -33.41792 150.46638 2400 ft 164 kts 52°
2026-05-01 10:44 -33.41114 150.47731 2371 ft 163 kts 56°
2026-05-01 10:45 -33.40470 150.48820 2450 ft 158 kts 57°
2026-05-01 10:45 -33.39804 150.49852 2521 ft 159 kts 51°
2026-05-01 10:45 -33.39051 150.50870 2427 ft 168 kts 50°
2026-05-01 10:45 -33.38307 150.51987 2098 ft 175 kts 54°
2026-05-01 10:46 -33.37606 150.53209 1697 ft 179 kts 59°
2026-05-01 10:46 -33.36954 150.54483 1359 ft 180 kts 59°
2026-05-01 10:46 -33.36304 150.55755 1296 ft 177 kts 60°
2026-05-01 10:46 -33.35613 150.56987 1416 ft 179 kts 56°
2026-05-01 10:47 -33.34760 150.58061 1460 ft 182 kts 38°
2026-05-01 10:47 -33.33692 150.58858 1572 ft 178 kts 23°
2026-05-01 10:47 -33.32538 150.59174 1795 ft 165 kts 16°
2026-05-01 10:47 -33.31566 150.59960 934 ft 166 kts 52°
2026-05-01 10:48 -33.31019 150.61074 1320 ft 157 kts 66°
2026-05-01 10:48 -33.30562 150.62371 1402 ft 179 kts 63°
2026-05-01 10:48 -33.29795 150.63547 1481 ft 179 kts 40°
2026-05-01 10:48 -33.28848 150.64485 1659 ft 181 kts 36°
2026-05-01 10:49 -33.27821 150.65403 1682 ft 185 kts 32°
2026-05-01 10:49 -33.26854 150.66207 1804 ft 153 kts 37°
2026-05-01 10:49 -33.26034 150.66890 1843 ft 136 kts 38°
2026-05-01 10:49 -33.25196 150.67281 1896 ft 128 kts 355°
2026-05-01 10:50 -33.24509 150.67413 2056 ft 76 kts 187°
2026-05-01 10:50 -33.24030 150.67543 2366 ft 56 kts 150°
2026-05-01 10:50 -33.23767 150.67665 2424 ft 37 kts 115°
2026-05-01 10:50 -33.23815 150.68301 2441 ft 115 kts 99°
2026-05-01 10:51 -33.23911 150.69464 2062 ft 164 kts 95°
2026-05-01 10:51 -33.23846 150.70963 1561 ft 188 kts 84°
2026-05-01 10:51 -33.23581 150.72402 1562 ft 173 kts 73°
2026-05-01 10:51 -33.23242 150.73755 1543 ft 172 kts 75°
2026-05-01 10:52 -33.22917 150.75170 1376 ft 178 kts 76°
2026-05-01 10:52 -33.22561 150.76559 1480 ft 171 kts 73°
2026-05-01 10:52 -33.22200 150.77878 1651 ft 168 kts 74°
2026-05-01 10:52 -33.21916 150.79258 1544 ft 173 kts 81°
2026-05-01 10:53 -33.21836 150.80717 1330 ft 177 kts 92°
2026-05-01 10:53 -33.21963 150.82137 1374 ft 168 kts 100°
2026-05-01 10:53 -33.21748 150.83462 1614 ft 168 kts 54°
2026-05-01 10:53 -33.20813 150.84369 1156 ft 179 kts 32°
2026-05-01 10:54 -33.19786 150.85150 633 ft 170 kts 37°
2026-05-01 10:54 -33.19087 150.86156 799 ft 150 kts 76°
2026-05-01 10:54 -33.19073 150.87409 947 ft 159 kts 94°
2026-05-01 10:54 -33.19112 150.88770 1054 ft 167 kts 92°
2026-05-01 10:55 -33.18754 150.90078 969 ft 174 kts 48°
2026-05-01 10:55 -33.18049 150.91166 1248 ft 163 kts 59°
2026-05-01 10:55 -33.17439 150.92378 1294 ft 176 kts 61°
2026-05-01 10:55 -33.16882 150.93710 1355 ft 180 kts 67°
2026-05-01 10:56 -33.16381 150.95085 1354 ft 175 kts 68°
2026-05-01 10:56 -33.16021 150.96416 1384 ft 164 kts 76°
2026-05-01 10:56 -33.15851 150.97749 1422 ft 162 kts 84°
2026-05-01 10:56 -33.15735 150.99088 1399 ft 169 kts 85°
2026-05-01 10:57 -33.15597 151.00501 1288 ft 173 kts 84°
2026-05-01 10:57 -33.15388 151.01905 1271 ft 170 kts 77°
2026-05-01 10:57 -33.15013 151.03214 1410 ft 163 kts 71°
2026-05-01 10:57 -33.14608 151.04529 1449 ft 177 kts 71°
2026-05-01 10:58 -33.14197 151.05944 1414 ft 178 kts 72°
2026-05-01 10:58 -33.13840 151.07295 1633 ft 168 kts 75°
2026-05-01 10:58 -33.13710 151.08715 1541 ft 177 kts 96°
2026-05-01 10:58 -33.14039 151.10125 1472 ft 176 kts 122°
2026-05-01 10:59 -33.14702 151.11323 1487 ft 170 kts 124°
2026-05-01 10:59 -33.15352 151.12489 1597 ft 170 kts 122°
2026-05-01 10:59 -33.15914 151.13738 1596 ft 177 kts 114°
2026-05-01 10:59 -33.16383 151.15106 1595 ft 176 kts 110°
2026-05-01 11:00 -33.16802 151.16417 1735 ft 164 kts 112°
2026-05-01 11:00 -33.17345 151.17624 1925 ft 171 kts 120°
2026-05-01 11:00 -33.17981 151.18894 1775 ft 180 kts 118°
2026-05-01 11:00 -33.18499 151.20201 1913 ft 168 kts 97°
2026-05-01 11:01 -33.18612 151.21533 1952 ft 159 kts 88°
2026-05-01 11:01 -33.18732 151.22859 1797 ft 167 kts 99°
2026-05-01 11:01 -33.18946 151.24244 1827 ft 174 kts 101°
2026-05-01 11:01 -33.19190 151.25678 1833 ft 178 kts 102°
2026-05-01 11:02 -33.19484 151.27083 1990 ft 167 kts 104°
2026-05-01 11:02 -33.19700 151.28422 1353 ft 169 kts 99°
2026-05-01 11:02 -33.19895 151.29824 987 ft 170 kts 99°
2026-05-01 11:02 -33.20083 151.31197 1033 ft 165 kts 99°
2026-05-01 11:03 -33.20256 151.32542 1052 ft 163 kts 99°
2026-05-01 11:03 -33.20475 151.33869 1046 ft 162 kts 103°
2026-05-01 11:03 -33.20778 151.35148 1076 ft 158 kts 104°
2026-05-01 11:03 -33.21068 151.36407 1099 ft 157 kts 104°
2026-05-01 11:04 -33.21448 151.37621 1143 ft 158 kts 109°
2026-05-01 11:04 -33.21844 151.38857 1138 ft 159 kts 109°
2026-05-01 11:04 -33.22298 151.40081 1133 ft 165 kts 120°
2026-05-01 11:04 -33.22896 151.41206 1126 ft 161 kts 120°
2026-05-01 11:05 -33.23502 151.42330 1130 ft 158 kts 120°
2026-05-01 11:05 -33.24186 151.43382 1133 ft 167 kts 136°
2026-05-01 11:05 -33.25010 151.44315 1127 ft 164 kts 135°
2026-05-01 11:05 -33.25836 151.45250 1132 ft 163 kts 135°
2026-05-01 11:06 -33.26607 151.46280 1068 ft 171 kts 112°
2026-05-01 11:06 -33.26902 151.47646 965 ft 172 kts 83°
2026-05-01 11:06 -33.26615 151.48980 703 ft 163 kts 70°
2026-05-01 11:07 -33.25411 151.51246 1118 ft 162 kts 50°
2026-05-01 11:07 -33.24731 151.52297 1034 ft 159 kts 57°
2026-05-01 11:07 -33.24242 151.53562 357 ft 176 kts 67°
2026-05-01 11:07 -33.23760 151.54870 477 ft 174 kts 60°
2026-05-01 11:08 -33.23180 151.56151 435 ft 175 kts 56°
2026-05-01 11:08 -33.22605 151.57427 426 ft 174 kts 57°
2026-05-01 11:08 -33.21474 151.59906 426 ft 170 kts 61°
2026-05-01 11:09 -33.20989 151.61140 475 ft 151 kts 81°
2026-05-01 11:09 -33.21048 151.62152 483 ft 75 kts 187°
2026-05-01 11:09 -33.21219 151.62031 583 ft 60 kts 301°
2026-05-01 11:10 -33.20255 151.62078 54 ft 113 kts 47°
2026-05-01 11:10 -33.19596 151.62646 71 ft 123 kts 29°
2026-05-01 11:10 -33.18793 151.63033 92 ft 125 kts 20°
2026-05-01 11:10 -33.17959 151.63317 88 ft 125 kts
2026-05-01 11:11 -33.17109 151.63510 97 ft 124 kts 13°
2026-05-01 11:11 -33.16258 151.63712 96 ft 123 kts 15°
2026-05-01 11:11 -33.15437 151.63905 95 ft 120 kts 15°
2026-05-01 11:11 -33.14620 151.64101 94 ft 119 kts 15°
2026-05-01 11:12 -33.13825 151.64388 101 ft 119 kts 21°
2026-05-01 11:12 -33.13018 151.64698 95 ft 123 kts 21°
2026-05-01 11:12 -33.12177 151.65010 97 ft 128 kts 21°
2026-05-01 11:12 -33.11288 151.65355 102 ft 135 kts 21°
2026-05-01 11:13 -33.10394 151.65743 93 ft 137 kts 26°
2026-05-01 11:13 -33.09547 151.66240 95 ft 137 kts 28°
2026-05-01 11:13 -33.08645 151.66645 99 ft 139 kts 17°
2026-05-01 11:13 -33.07715 151.66980 95 ft 139 kts 18°
2026-05-01 11:14 -33.06780 151.67274 96 ft 138 kts 18°
2026-05-01 11:14 -33.05858 151.67568 95 ft 139 kts 18°
2026-05-01 11:14 -33.04926 151.67869 96 ft 137 kts 18°
2026-05-01 11:14 -33.04179 151.68531 96 ft 135 kts 47°
2026-05-01 11:15 -33.03517 151.69413 50 ft 146 kts 49°
2026-05-01 11:15 -33.02874 151.70345 121 ft 146 kts 52°
2026-05-01 11:15 -33.02286 151.71362 57 ft 151 kts 56°
2026-05-01 11:15 -33.01687 151.72365 130 ft 145 kts 56°
2026-05-01 11:16 -33.01101 151.73282 95 ft 142 kts 33°
2026-05-01 11:16 -33.00270 151.73919 100 ft 141 kts 34°
2026-05-01 11:16 -32.99414 151.74508 97 ft 142 kts 32°
2026-05-01 11:16 -32.98559 151.75085 96 ft 141 kts 32°
2026-05-01 11:17 -32.97706 151.75652 97 ft 141 kts 32°
2026-05-01 11:17 -32.96827 151.76240 21 ft 151 kts 32°
2026-05-01 11:17 -32.95920 151.76849 121 ft 148 kts 32°
2026-05-01 11:17 -32.95010 151.77468 90 ft 153 kts 32°
2026-05-01 11:18 -32.94107 151.78102 114 ft 149 kts 33°
2026-05-01 11:18 -32.93258 151.78747 106 ft 142 kts 36°
2026-05-01 11:18 -32.92479 151.79437 95 ft 141 kts 38°
2026-05-01 11:18 -32.91682 151.80124 114 ft 139 kts 38°
2026-05-01 11:19 -32.90897 151.80777 183 ft 136 kts 36°
2026-05-01 11:19 -32.90129 151.81400 328 ft 133 kts 36°
2026-05-01 11:19 -32.89357 151.82012 472 ft 134 kts 36°
2026-05-01 11:19 -32.88561 151.82619 490 ft 137 kts 36°
2026-05-01 11:20 -32.87772 151.83252 498 ft 139 kts 36°
2026-05-01 11:20 -32.86964 151.83909 493 ft 142 kts 36°
2026-05-01 11:20 -32.86135 151.84570 493 ft 144 kts 36°
2026-05-01 11:20 -32.85296 151.85235 490 ft 144 kts 36°
2026-05-01 11:21 -32.84437 151.85914 480 ft 155 kts 35°
2026-05-01 11:21 -32.83546 151.86562 519 ft 145 kts 33°
2026-05-01 11:21 -32.82651 151.86959 578 ft 132 kts 352°
2026-05-01 11:21 -32.81882 151.86521 536 ft 121 kts 316°
2026-05-01 11:22 -32.81307 151.85828 454 ft 114 kts 309°
2026-05-01 11:22 -32.80792 151.85159 254 ft 106 kts 309°
2026-05-01 11:22 -32.80332 151.84522 52 ft 88 kts 308°
2026-05-01 11:22 -32.80013 151.84066 33 ft 60 kts 308°
2026-05-01 11:23 -32.79838 151.83835 28 ft 8 kts 344°
2026-05-01 11:23 -32.79839 151.83834 28 ft 0 kts 90°
2026-05-01 11:23 -32.79839 151.83840 29 ft 4 kts 92°
2026-05-01 11:23 -32.79829 151.83897 30 ft 11 kts 53°
2026-05-01 11:24 -32.79785 151.83974 29 ft 9 kts 52°
2026-05-01 11:24 -32.79760 151.84018 30 ft 4 kts 57°
2026-05-01 11:24 -32.79696 151.84140 32 ft 14 kts 67°
2026-05-01 11:25 -32.79709 151.84165 32 ft 5 kts 146°
2026-05-01 11:25 -32.79801 151.84222 31 ft 7 kts 156°
2026-05-01 11:25 -32.79819 151.84239 31 ft 3 kts 349°
2026-05-01 11:26 -32.79807 151.84230 31 ft 2 kts 320°
2026-05-01 11:26 -32.79758 151.84233 32 ft 0 kts 58°